Regional Weather Roundup
Issued by NWS

Home | Current Version | Previous Version | Graphics & Text | Print | Product List | Glossary On
Versions: 1 2 3 4 5 6 7 8 9 10 11 12 13 14 15 16 17 18 19 20 21 22 23 24 25 26 27 28 29 30 31 32 33 34 35 36 37 38 39 40 41 42 43 44 45 46 47 48 49 50
000
ASUS43 KLSX 160607
RWRMO

WEATHER SUMMARY FOR MISSOURI
NATIONAL WEATHER SERVICE SPRINGFIELD MO
100 AM CDT WED APR 16 2014

NOTE: "FAIR" INDICATES FEW OR NO CLOUDS BELOW 12,000 FEET WITH NO
       SIGNIFICANT WEATHER AND/OR OBSTRUCTIONS TO VISIBILITY.
       CURRENT SKY AND/OR WEATHER CONDITIONS ARE NOT AVAILABLE FOR
       CHILLICOTHE AND FARMINGTON.

MOZ001>031-035>038-043-044-053-054-160700-
...NORTHERN AND WESTERN MISSOURI...

CITY           SKY/WX    TMP DP  RH WIND       PRES   REMARKS
KANSAS CTY INT FAIR      47  26  44 S18G26    29.98F
6HR MIN TEMP:  47; 6HR MAX TEMP:  52;

KANSAS C DTWN  FAIR      48  26  42 S16G24    30.01F
6HR MIN TEMP:  48; 6HR MAX TEMP:  54;

LEE`S SUMMIT   FAIR      45  27  49 S13G21    30.02F
6HR MIN TEMP:  45; 6HR MAX TEMP:  51;

ST JOSEPH      FAIR      46  28  49 S16       29.97S
6HR MIN TEMP:  46; 6HR MAX TEMP:  53;

CHILLICOTHE      N/A     44  27  51 SE13      30.05F
6HR MIN TEMP:  43; 6HR MAX TEMP:  50;

KIRKSVILLE     FAIR      38  26  62 S15       30.07F WCI  29
6HR MIN TEMP:  35; 6HR MAX TEMP:  46;


$$
MOZ066>068-077>081-088>096-101>105-160700-
...SOUTHWEST MISSOURI...

CITY           SKY/WX    TMP DP  RH WIND       PRES   REMARKS
SPRINGFIELD    FAIR      42  23  46 SE12      30.12S
6HR MIN TEMP:  39; 6HR MAX TEMP:  51;

JOPLIN         FAIR      45  25  45 SE10      30.09S
6HR MIN TEMP:  45; 6HR MAX TEMP:  54;


$$
MOZ032>034-039>042-045>050-055>058-069>072-160700-
...CENTRAL MISSOURI...

CITY           SKY/WX    TMP DP  RH WIND       PRES   REMARKS
COLUMBIA       FAIR      38  24  57 SE8       30.13F
6HR MIN TEMP:  38; 6HR MAX TEMP:  47;

JEFFERSON CITY FAIR      40  24  53 E8        30.15F
6HR MIN TEMP:  36; 6HR MAX TEMP:  50;

ROLLA          FAIR      38  21  50 SE9       30.15R
6HR MIN TEMP:  35; 6HR MAX TEMP:  47;

SEDALIA        FAIR      41  25  53 SE10      30.10F
6HR MIN TEMP:  41; 6HR MAX TEMP:  49;

WHITEMAN AFB   FAIR      43  24  46 S12       30.07F
OSAGE BEACH    FAIR      37  23  56 SE5       30.15F

$$
MOZ051-052-059>065-160700-
...EAST CENTRAL MISSOURI...

CITY           SKY/WX    TMP DP  RH WIND       PRES   REMARKS
ST LOUIS INTL  FAIR      42  22  44 SE13      30.22R
6HR MIN TEMP:  40; 6HR MAX TEMP:  48;

SPIRIT OF STL  FAIR      39  21  48 SE5       30.20S
6HR MIN TEMP:  33; 6HR MAX TEMP:  47;

ST CHARLES     FAIR      36  28  73 SE8       30.20S WCI  30
6HR MIN TEMP:  36; 6HR MAX TEMP:  47;


$$
MOZ072>076-082>087-097>100-106>115-160700-
...SOUTH CENTRAL AND SOUTHEAST MISSOURI...

CITY           SKY/WX    TMP DP  RH WIND       PRES   REMARKS
CAPE GIRARDEAU FAIR      36  28  73 SE3       30.27R
6HR MIN TEMP:  35; 6HR MAX TEMP:  47;

FARMINGTON     FAIR      34  21  60 SE5       30.25R WCI  30
6HR MIN TEMP:  34; 6HR MAX TEMP:  46;

POPLAR BLUFF   FAIR      40  34  79 MISG      30.25R
6HR MIN TEMP:  39; 6HR MAX TEMP:  51;

WEST PLAINS    FAIR      39  22  50 SE8       30.20R
6HR MIN TEMP:  37; 6HR MAX TEMP:  50;


$$



USA.gov is the U.S. government's official web portal to all federal, state and local government web resources and services.